Tracking 30417 objects as of 17-May-2025
HD Live streaming from Space Station
objects crossing your sky now

PAGEOS 1 DEB

Track PAGEOS 1 DEB now!
10-day predictions


NORAD ID: 2511
Int'l Code: 1966-056D
Perigee: 4,234.5 km
Apogee: 4,261.6 km
Inclination: 87.0 °
Period: 181.5 minutes
Semi major axis: 10619 km
RCS: 1.1173 m2 (large)
Launch date: June 24, 1966
Source: United States (US)
Launch site: AIR FORCE WESTERN TEST RANGE (AFWTR)

Note: This is SATELLITE DEBRIS
Your satellite tracking list
Your tracking list is empty




NASA's NSSDC Master Catalog

Two Line Element Set (TLE):
1 02511U 66056D   25134.74998426  .00000003  00000-0  11214-2 0  9990
2 02511  86.9829 259.7088 0012794 140.8343 219.3391  7.93367751320986
Source of the keplerian elements: AFSPC